Weather in Starosoldatskoye

Russia / Omsk Oblast     56°12′10″N   72°36′07″E
temp.,
°C
wind,
m/s
gust,
m/s
humid.,
%
clouds,
%
prec.,
mm/h
press.,
hPa
HPBL,
m
28 february, sun
sun2800:00−30sse479847 0.0 103093
03:00−30se479976 0.0 102990
06:00−27ese489687 0.0 1027176
09:00−24ese5995100 0.0 1024253
12:00−21ese6995100 0.0 1022314
15:00−18ese6109499 0.1 1020397
18:00−18ese61194100 0.1 1018409
21:00−19e61295100 0.1 1016381
1 march, mon
mon100:00−19e71197100 0.3 1014333
03:00−19ene61195100 0.4 1012337
06:00−19ene61195100 0.5 1011327
09:00−18ne61095100 0.1 1010340
12:00−16ne5894100 0.3 1011384
15:00−14ne5792100 0.1 1011421
18:00−14nne3694100 0.2 1013358
21:00−16n339790 0.1 101443
2 march, tue
tue200:00−19n229991 0.1 101620
03:00−21nnw1110097 0.0 101620
06:00−21wnw1110098 0.1 101620
09:00−19wsw119897 0.0 101637
12:00−15ssw229095 0.1 1016306
15:00−13ssw2387100 0.1 1015433
18:00−14s2294100 0.1 101529
21:00−17s339795 0.0 101425
3 march, wed
wed300:00−19s339989 0.1 101427
03:00−21s239962 0.0 101421
06:00−22s349862 0.0 101444
09:00−21s369848 0.0 1013115
12:00−14s599366 0.0 1013358
15:00−12s61091100 0.0 1012499
18:00−13s61193100 0.1 1011492
21:00−13s61294100 0.3 1010440
4 march, thu
thu400:00−10s61194100 0.8 1009487
03:00−8s61194100 0.5 1007465
06:00−7s61294100 1.1 1006455
09:00−5s61295100 0.5 1004493
12:00−2s61194100 0.9 1003674
15:000ssw61097100 0.5 1002738
18:000ssw61095100 1.2 1001650
21:00−2s61095100 0.5 1000445